Overview Statistics Trail Chart Weather Telemetry Raw packets
 

This is the latest recevied weather packets stored in our database for station/object AG1T-20. If no packets are shown the sender has not sent any weather packets the latest 10 day(s).

<< 37 38 39 40 41 42 43 >>
Time Temp. Humidity Pressure Rain* Wind** Luminosity Snow
1788042005 21.67° C 54% 1019.5 hPa 0 mm - 344 W/m² -
1788041405 21.67° C 56% 1019.5 hPa 0 mm - 388 W/m² -
1788040805 21.11° C 56% 1019.5 hPa 0 mm - 368 W/m² -
1788040205 21.11° C 55% 1020.3 hPa 0 mm - 535 W/m² -
1788039605 21.11° C 50% 1020.3 hPa 0 mm - 726 W/m² -
1788039005 21.11° C 52% 1020.3 hPa 0 mm - 410 W/m² -
1788038405 21.67° C 55% 1020.3 hPa 0 mm - 708 W/m² -
1788037805 19.44° C 63% 1020.3 hPa 0 mm - 501 W/m² -
1788037205 18.33° C 68% 1020.3 hPa 0 mm - 212 W/m² -
1788036605 18.33° C 67% 1020.8 hPa 0 mm - 137 W/m² -
1788036005 18.33° C 67% 1020.8 hPa 0 mm - 173 W/m² -
1788035405 18.33° C 68% 1020.8 hPa 0 mm - 162 W/m² -
1788034805 18.33° C 67% 1020.8 hPa 0 mm - 115 W/m² -
1788034205 18.89° C 63% 1020.8 hPa 0 mm - 95 W/m² -
1788033605 19.44° C 62% 1020.8 hPa 0 mm - 153 W/m² -
1788033005 18.89° C 64% 1020.3 hPa 0 mm - 143 W/m² -
1788032405 20° C 60% 1020.3 hPa 0 mm - 264 W/m² -
1788031805 20.56° C 59% 1020.3 hPa 0 mm - 366 W/m² -
1788031205 19.44° C 64% 1020.3 hPa 0 mm - 445 W/m² -
1788030605 17.78° C 71% 1020.3 hPa 0 mm - 176 W/m² -
1788030005 17.22° C 72% 1020.3 hPa 0 mm - 164 W/m² -
1788029405 17.22° C 73% 1020.8 hPa 0.25 mm - 175 W/m² -
1788028805 17.22° C 74% 1020.8 hPa 0.51 mm - 182 W/m² -
1788028205 18.89° C 63% 1020.8 hPa 0.76 mm - 182 W/m² -
1788027605 17.78° C 71% 1020.8 hPa 1.02 mm - 97 W/m² -

* Rain latest hour (hover to see other rain measurements)
** Current wind speed in m/s (hover to see current wind gust speed)